Tracking 23645 objects as of 21-Sep-2021
HD Live streaming from Space Station
objects crossing your sky now

ANIK A2 (TELESAT 2)

Track ANIK A2 (TELESAT 2) now!
ANIK A2 (TELESAT 2) is classified as:


NORAD ID: 6437
Int'l Code: 1973-023A
Perigee: 35,889.2 km
Apogee: 35,969.3 km
Inclination: 10.9 °
Period: 1,443.0 minutes
Semi major axis: 42300 km
RCS: 3.1458 m2 (large)
Launch date: April 20, 1973
Source: Canada (CA)
Launch site: AIR FORCE EASTERN TEST RANGE (AFETR)
aabbcc
Your satellite tracking list
Your tracking list is empty




NASA's NSSDC Master Catalog

Two Line Element Set (TLE):
1 06437U 73023A   21263.67970539 -.00000125  00000-0  00000-0 0  9994
2 06437  10.8620 312.3942 0009470  40.1720 338.4183  0.99790494 29885
Source of the keplerian elements: AFSPC